This is the latest recevied weather packets stored in our database for station/object DO7CRZ-12. If no packets are shown the sender has not sent any weather packets the latest 10 day(s).
| Time | Temp. | Humidity | Pressure | Rain* | Wind** | Luminosity | Snow |
|---|---|---|---|---|---|---|---|
| 1778164036 | 11.67° C | 89% | 1013.5 hPa | 0 mm | - | 16 W/m² | - |
| 1778163448 | 11.67° C | 88% | 1013.3 hPa | 0 mm | - | 19 W/m² | - |
| 1778162845 | 11.67° C | 88% | 1013.2 hPa | 0 mm | - | 34 W/m² | - |
| 1778162242 | 11.67° C | 87% | 1013.2 hPa | 0 mm | - | 32 W/m² | - |
| 1778161639 | 11.67° C | 87% | 1013.1 hPa | 0 mm | - | 21 W/m² | - |
| 1778161036 | 12.22° C | 87% | 1013.2 hPa | 0 mm | - | 25 W/m² | - |
| 1778160448 | 11.67° C | 88% | 1013 hPa | 0 mm | - | 56 W/m² | - |
| 1778159243 | 11.67° C | 87% | 1012.8 hPa | 0 mm | - | 30 W/m² | - |
| 1778158640 | 11.67° C | 87% | 1012.8 hPa | 0 mm | - | 26 W/m² | - |
| 1778158037 | 11.67° C | 86% | 1012.7 hPa | 0 mm | - | 18 W/m² | - |
| 1778157449 | 12.22° C | 85% | 1012.6 hPa | 0 mm | - | 29 W/m² | - |
| 1778156846 | 12.22° C | 85% | 1012.7 hPa | 0 mm | - | 30 W/m² | - |
| 1778156244 | 12.22° C | 86% | 1012.4 hPa | 0 mm | - | 48 W/m² | - |
| 1778155641 | 12.22° C | 86% | 1012.3 hPa | 0 mm | - | 60 W/m² | - |
| 1778155038 | 11.67° C | 87% | 1012.3 hPa | 0 mm | - | 69 W/m² | - |
| 1778154435 | 11.67° C | 86% | 1012.4 hPa | 0 mm | - | 47 W/m² | - |
| 1778153847 | 11.67° C | 86% | 1012.2 hPa | 0 mm | - | 28 W/m² | - |
| 1778153245 | 11.67° C | 86% | 1012.3 hPa | 0 mm | - | 26 W/m² | - |
| 1778152642 | 12.22° C | 85% | 1012 hPa | 0 mm | - | 44 W/m² | - |
| 1778152039 | 12.22° C | 85% | 1011.9 hPa | 0 mm | - | 48 W/m² | - |
| 1778151436 | 12.22° C | 85% | 1012 hPa | 0 mm | - | 55 W/m² | - |
| 1778150849 | 12.22° C | 85% | 1011.9 hPa | 0 mm | - | 35 W/m² | - |
| 1778149643 | 12.22° C | 86% | 1011.9 hPa | 0 mm | - | 51 W/m² | - |
| 1778149040 | 12.22° C | 86% | 1011.8 hPa | 0 mm | - | 64 W/m² | - |
| 1778148437 | 12.22° C | 87% | 1011.8 hPa | 0 mm | - | 66 W/m² | - |
* Rain latest hour (hover to see other rain measurements)
** Current wind speed in m/s (hover to see current wind gust speed)